Location: Abraham Lincoln Continuation High School
(33.9711°N, 117.3662°W)
Time: 03:33:22
(UTC+00:00)

CSL-04 Rocket - Pass Details

Date: 21 September 2020
Orbit: 806 x 860 km, 98.9° (Epoch: 25 October)

Event Time Altitude Azimuth Distance (km) Brightness Sun altitude
Rises 02:16:42 0° 145° (SE) 3,348 6.4 -6.8°
Reaches altitude 10° 02:19:09 10° 138° (SE) 2,427 5.7 -7.3°
Maximum altitude 02:24:07 39° 70° (ENE) 1,228 4.2 -8.3°
Drops below altitude 10° 02:29:10 10° 3° (N) 2,472 6.2 -9.3°
Sets 02:31:41 0° 356° (N) 3,418 7.0 -9.8°
